Location: Marstown
(39.5056°N, 77.0820°W)
Time: 14:27:49
(UTC-05:00)

Tiangong 2 - Visible Passes

Search period start: 19 November 2018 00:00
Search period end: 29 November 2018 00:00
Orbit: 382 x 393 km, 42.8° (Epoch: 19 November)

Date Brightness Start Highest point End Pass type
(mag) Time Alt. Az. Time Alt. Az. Time Alt. Az.
23 Nov 4.0 05:58:11 10° S 06:00:26 18° SE 06:02:42 10° E visible
25 Nov 2.8 05:37:20 12° SSW 05:39:50 32° SSE 05:42:45 10° E visible
26 Nov 3.9 04:42:11 17° SE 04:42:11 17° SE 04:43:42 10° E visible
26 Nov 1.1 06:14:42 10° WSW 06:17:55 89° N 06:21:07 10° ENE visible
27 Nov 1.5 05:19:08 56° S 05:19:18 57° SSE 05:22:27 10° ENE visible
28 Nov 4.7 04:23:37 10° E 04:23:37 10° E 04:23:41 10° E visible
28 Nov 1.2 05:55:54 26° W 05:57:29 61° NNW 06:00:40 10° ENE visible
